KJ4OVR-WX Weather Reports


time (UTC)temp
C
wind
direction
speed
KPH
gust
KPH
rain 1hr
cm
rain 24hr
cm
rain mn
cm
humidity
%
barometer
mb
20260504081534 7 0.0 0.0 0.00 0.00 0.00 81 1016.9
20260504081035 7 0.0 0.0 0.00 0.00 0.00 81 1016.9
20260504080536 8 0.0 0.0 0.00 0.00 0.00 81 1016.9
20260504050537 8 0.0 0.0 0.00 0.00 0.00 77 1018.0
20260504045538 8 0.0 0.0 0.00 0.00 0.00 76 1017.9
20260504045037 8 0.0 0.0 0.00 0.00 0.00 75 1017.9
20260504044539 8 0.0 0.0 0.00 0.00 0.00 75 1017.9
20260504044038 8 0.0 0.0 0.00 0.00 0.00 73 1017.9
20260504043539 9 0.0 0.0 0.00 0.00 0.00 73 1017.8
20260504043038 9 0.0 0.0 0.00 0.00 0.00 73 1017.9
20260504042540 9 0.0 0.0 0.00 0.00 0.00 72 1017.8
20260504042038 9 0.0 0.0 0.00 0.00 0.00 72 1017.7
20260504041621 10 0.0 0.0 0.00 0.00 0.00 72 1017.7
20260504041108 10 0.0 0.0 0.00 0.00 0.00 71 1017.7
20260504040538 10 0.0 0.0 0.00 0.00 0.00 71 1017.7
20260504040038 10 0.0 0.0 0.00 0.00 0.00 71 1017.7
20260504035540 10 0.0 0.0 0.00 0.00 0.00 71 1017.6
20260504035039 10 0.0 0.0 0.00 0.00 0.00 67 1017.6
20260504034602 10 0.0 0.0 0.00 0.00 0.00 67 1017.7
20260504034040 10 0.0 0.0 0.00 0.00 0.00 67 1017.8
20260504033538 10 0.0 0.0 0.00 0.00 0.00 67 1017.8
20260504033041 10 0.0 0.0 0.00 0.00 0.00 67 1017.8
20260504032540 10 0.0 0.0 0.00 0.00 0.00 67 1017.8
20260504032140 10 0.0 0.0 0.00 0.00 0.00 67 1017.8
20260504031539 10 0.0 0.0 0.00 0.00 0.00 67 1017.8
20260504031040 10 0.0 0.0 0.00 0.00 0.00 67 1017.8
20260504030539 10 0.0 0.0 0.00 0.00 0.00 70 1017.8
20260504030039 10 0.0 0.0 0.00 0.00 0.00 72 1017.8
20260504025639 10 0.0 0.0 0.00 0.00 0.00 69 1017.9
20260504025040 10 0.0 0.0 0.00 0.00 0.00 67 1017.9
20260504024541 10 0.0 0.0 0.00 0.00 0.00 71 1017.9
20260504024040 11 0.0 0.0 0.00 0.00 0.00 71 1017.9
20260504023540 11 0.0 0.0 0.00 0.00 0.00 67 1017.8
20260504023040 11 0.0 0.0 0.00 0.00 0.00 67 1017.7
20260504022540 11 0.0 0.0 0.00 0.00 0.00 67 1017.7
20260504022042 11 0.0 0.0 0.00 0.00 0.00 67 1017.7
20260504021541 11 0.0 0.0 0.00 0.00 0.00 65 1017.7
20260504021111 11 0.0 0.0 0.00 0.00 0.00 65 1017.7
20260504020540 11 0.0 0.0 0.00 0.00 0.00 64 1017.6
20260504020040 11 0.0 0.0 0.00 0.00 0.00 63 1017.5
20260504015541 12 0.0 0.0 0.00 0.00 0.00 61 1017.3
20260504015041 12 0.0 0.0 0.00 0.00 0.00 60 1017.3
20260504014643 12 0.0 0.0 0.00 0.00 0.00 58 1017.1
20260504014042 12 0.0 0.0 0.00 0.00 0.00 58 1017.1
20260504013541 12 0.0 0.0 0.00 0.00 0.00 57 1017.1
20260504013051 12 0.0 0.0 0.00 0.00 0.00 57 1017.0
20260504012541 13 0.0 0.0 0.00 0.00 0.00 56 1017.0
20260504012040 13 0.0 0.0 0.00 0.00 0.00 56 1016.9
20260504011743 13 0.0 0.0 0.00 0.00 0.00 56 1016.8
20260504011041 13 0.0 0.0 0.00 0.00 0.00 56 1016.7
20260504010541 13 0.0 0.0 0.00 0.00 0.00 55 1016.6
20260504010041 14 0.0 0.0 0.00 0.00 0.00 54 1016.6
20260504005541 14 0.0 0.0 0.00 0.00 0.00 53 1016.5
20260504005041 15 0.0 0.0 0.00 0.00 0.00 53 1016.4
20260504004644 15 0.0 0.0 0.00 0.00 0.00 52 1016.4
20260504004042 15 0.0 0.0 0.00 0.00 0.00 51 1016.3
20260504003542 15 0.0 0.0 0.00 0.00 0.00 51 1016.2
20260504003044 16 0.0 0.0 0.00 0.00 0.00 51 1016.3
20260504002542 16 0.0 0.0 0.00 0.00 0.00 51 1016.3
20260504002142 16 0.0 0.0 0.00 0.00 0.00 50 1016.3
20260504001542 16 0.0 0.0 0.00 0.00 0.00 50 1016.2
20260504001042 16 0.0 0.0 0.00 0.00 0.00 50 1016.2
20260504000542 17 0.0 0.0 0.00 0.00 0.00 49 1016.2
20260504000042 17 0.0 0.0 0.00 0.00 0.00 49 1016.2
20260503235543 17 0.0 0.0 0.00 0.00 0.00 48 1016.2
20260503235043 18 0.0 0.0 0.00 0.00 0.00 48 1016.2
20260503234543 18 0.0 0.0 0.00 0.00 0.00 47 1016.2
20260503234042 18 0.0 0.0 0.00 0.00 0.00 46 1016.3
20260503233543 18 0.0 0.0 0.00 0.00 0.00 46 1016.3
20260503233043 18 0.0 0.0 0.00 0.00 0.00 45 1016.3
20260503232543 19 0.0 0.0 0.00 0.00 0.00 45 1016.3
20260503232043 19 0.0 0.0 0.00 0.00 0.00 45 1016.2
20260503231610 19 0.0 0.0 0.00 0.00 0.00 45 1016.3
20260503231042 20 0.0 0.0 0.00 0.00 0.00 44 1016.3
20260503230543 20 0.0 0.0 0.00 0.00 0.00 43 1016.3
20260503230043 20 0.0 0.0 0.00 0.00 0.00 43 1016.3
20260503225553 20 0.0 0.0 0.00 0.00 0.00 43 1016.3
20260503225147 21 0.0 0.0 0.00 0.00 0.00 43 1016.3
20260503224543 21 0.0 0.0 0.00 0.00 0.00 43 1016.2
20260503224043 21 0.0 0.0 0.00 0.00 0.00 43 1016.3
20260503223545 21 0.0 0.0 0.00 0.00 0.00 42 1016.4
20260503223043 21 0.0 0.0 0.00 0.00 0.00 43 1016.3
20260503222643 21 0.0 0.0 0.00 0.00 0.00 43 1016.4
20260503222044 21 0.0 0.0 0.00 0.00 0.00 43 1016.4
20260503221544 21 0.0 0.0 0.00 0.00 0.00 43 1016.5
20260503221044 21 0.0 0.0 0.00 0.00 0.00 43 1016.4
20260503220545 21 0.0 0.0 0.00 0.00 0.00 43 1016.4
20260503220044 21 0.0 0.0 0.00 0.00 0.00 43 1016.5
20260503215544 21 0.0 0.0 0.00 0.00 0.00 43 1016.5
20260503215045 21 0.0 0.0 0.00 0.00 0.00 43 1016.6
20260503214545 21 0.0 0.0 0.00 0.00 0.00 43 1016.5
20260503214045 21 0.0 0.0 0.00 0.00 0.00 43 1016.7
20260503213544 21 0.0 0.0 0.00 0.00 0.00 43 1016.7
20260503213044 21 0.0 0.0 0.00 0.00 0.00 43 1016.6
20260503212546 21 0.0 0.0 0.00 0.00 0.00 43 1016.7
20260503212044 21 0.0 0.0 0.00 0.00 0.00 43 1016.7
20260503211545 21 0.0 0.0 0.00 0.00 0.00 43 1016.7
20260503211045 21 0.0 0.0 0.00 0.00 0.00 42 1016.8
20260503210545 21 0.0 0.0 0.00 0.00 0.00 43 1016.8
20260503210045 21 0.0 0.0 0.00 0.00 0.00 43 1016.8
20260503205545 21 0.0 0.0 0.00 0.00 0.00 42 1016.8
20260503205045 21 0.0 0.0 0.00 0.00 0.00 43 1017.0
20260503204603 21 0.0 0.0 0.00 0.00 0.00 43 1017.0
20260503204045 21 0.0 0.0 0.00 0.00 0.00 43 1017.2
20260503203545 21 0.0 0.0 0.00 0.00 0.00 43 1017.3
20260503203045 21 0.0 0.0 0.00 0.00 0.00 43 1017.4
20260503202546 21 0.0 0.0 0.00 0.00 0.00 43 1017.5
20260503202045 21 0.0 0.0 0.00 0.00 0.00 42 1017.7
20260503201546 21 0.0 0.0 0.00 0.00 0.00 43 1017.7
20260503201045 21 0.0 0.0 0.00 0.00 0.00 43 1017.8
20260503200546 21 0.0 0.0 0.00 0.00 0.00 43 1017.9
20260503200046 21 0.0 0.0 0.00 0.00 0.00 43 1018.1
20260503195549 21 0.0 0.0 0.00 0.00 0.00 42 1018.3
20260503195046 21 0.0 0.0 0.00 0.00 0.00 42 1018.4
20260503194602 20 0.0 0.0 0.00 0.00 0.00 42 1018.5
20260503194131 20 0.0 0.0 0.00 0.00 0.00 42 1018.6
20260503193546 20 0.0 0.0 0.00 0.00 0.00 43 1018.6
20260503193047 20 0.0 0.0 0.00 0.00 0.00 43 1018.7
20260503192646 21 0.0 0.0 0.00 0.00 0.00 43 1018.8
20260503192046 21 0.0 0.0 0.00 0.00 0.00 43 1018.8
20260503191546 20 0.0 0.0 0.00 0.00 0.00 43 1019.0
20260503191047 20 0.0 0.0 0.00 0.00 0.00 43 1019.2
20260503190546 20 0.0 0.0 0.00 0.00 0.00 43 1019.2
20260503190047 20 0.0 0.0 0.00 0.00 0.00 43 1019.2
20260503185547 20 0.0 0.0 0.00 0.00 0.00 44 1019.3
20260503185048 20 0.0 0.0 0.00 0.00 0.00 45 1019.4
20260503184547 20 0.0 0.0 0.00 0.00 0.00 45 1019.5
20260503184047 20 0.0 0.0 0.00 0.00 0.00 45 1019.5
20260503183604 20 0.0 0.0 0.00 0.00 0.00 43 1019.6
20260503183048 19 0.0 0.0 0.00 0.00 0.00 44 1019.7
20260503182547 19 0.0 0.0 0.00 0.00 0.00 44 1019.7
20260503182048 19 0.0 0.0 0.00 0.00 0.00 43 1019.8
20260503181548 19 0.0 0.0 0.00 0.00 0.00 43 1019.8
20260503181048 19 0.0 0.0 0.00 0.00 0.00 45 1019.9
20260503180548 18 0.0 0.0 0.00 0.00 0.00 43 1020.0
20260503180048 18 0.0 0.0 0.00 0.00 0.00 44 1020.0
20260503175556 18 0.0 0.0 0.00 0.00 0.00 45 1020.1
20260503175048 18 0.0 0.0 0.00 0.00 0.00 44 1020.1
20260503174549 18 0.0 0.0 0.00 0.00 0.00 45 1020.2
20260503174048 18 0.0 0.0 0.00 0.00 0.00 45 1020.3
20260503173549 18 0.0 0.0 0.00 0.00 0.00 46 1020.3
20260503173048 18 0.0 0.0 0.00 0.00 0.00 46 1020.4
20260503172548 18 0.0 0.0 0.00 0.00 0.00 46 1020.6
20260503172048 18 0.0 0.0 0.00 0.00 0.00 45 1020.6
20260503171548 18 0.0 0.0 0.00 0.00 0.00 46 1020.8
20260503171049 17 0.0 0.0 0.00 0.00 0.00 46 1020.8
20260503170549 18 0.0 0.0 0.00 0.00 0.00 47 1020.9
20260503150550 15 0.0 0.0 0.00 0.00 0.00 57 1022.0
20260503150151 15 0.0 0.0 0.00 0.00 0.00 58 1022.0
20260503131053 9 0.0 0.0 0.00 0.00 0.00 92 1022.5
20260503130552 8 0.0 0.0 0.00 0.00 0.00 92 1022.5
20260503130154 8 0.0 0.0 0.00 0.00 0.00 92 1022.5
20260503110555 3 0.0 0.0 0.00 0.00 0.00 90 1022.2